Date String (YYYY-MM-DD hh:mm:ss) UTC,Instrument flags,Ambient pressure (hPa),Sample flow (lpm),Bypass flow (lpm),Sample temperature (°C),Ambient temperature (°C),ASC tube jacket temperature (°C),LED temperature (°C),Box temperature (°C),Sample RH (%),Span deviation,Mass concentration (μg/m³),Mass concentration (μg/m³),Mass concentration (μg/m³)
DateTimeUTC,F1_M11,P_M11,Q1_M11,Q2_M11,T1_M11,T2_M11,T3_M11,T4_M11,T5_M11,U1_M11,ZSPAN_M11,X0_M11,X2_M11,X1_M11
2022-01-07 06:00:00,,0816.8,5.01,0.00,21.6,22.8,00.0,30.7,23.4,07.0,0002.6,0017.29,0011.43,0010.27
2022-01-07 06:01:00,,0816.6,4.99,0.00,21.7,22.7,00.0,30.7,23.4,07.2,0002.2,0017.50,0011.30,0010.14
2022-01-07 06:02:00,,0816.6,5.00,0.00,21.6,22.1,00.0,30.7,23.2,07.4,0002.1,0017.34,0011.11,0010.02
2022-01-07 06:03:00,,0816.7,5.00,0.00,21.6,21.7,00.0,30.7,23.1,07.8,0002.1,0016.94,0010.83,0009.76
2022-01-07 06:04:00,,0817.0,5.00,0.00,21.5,21.2,00.0,30.7,22.8,07.5,0002.1,0016.75,0010.70,0009.66
2022-01-07 06:05:00,,0816.6,5.00,0.00,21.3,20.6,00.0,30.6,22.5,07.3,0001.9,0016.78,0010.72,0009.69
2022-01-07 06:06:00,,0816.7,5.01,0.00,21.2,20.8,00.0,30.6,22.6,07.2,0001.7,0017.20,0010.73,0009.70
2022-01-07 06:07:00,,0816.8,5.00,0.00,21.4,21.7,00.0,30.6,22.9,07.4,0001.8,0017.54,0010.65,0009.62
2022-01-07 06:08:00,,0816.4,4.99,0.00,21.5,22.5,00.0,30.6,23.3,07.7,0001.6,0017.21,0010.49,0009.49
2022-01-07 06:09:00,,0816.4,5.01,0.00,21.7,23.0,00.0,30.7,23.6,07.8,0001.3,0017.39,0010.50,0009.47
2022-01-07 06:10:00,,0816.4,5.00,0.00,21.7,22.5,00.0,30.7,23.4,08.0,0001.3,0017.52,0010.38,0009.34
2022-01-07 06:11:00,,0816.3,5.00,0.00,21.7,22.0,00.0,30.7,23.2,08.3,0001.7,0017.25,0010.18,0009.17
2022-01-07 06:12:00,,0816.3,4.99,0.00,21.6,21.6,00.0,30.7,23.1,08.7,0002.2,0016.63,0009.94,0008.97
2022-01-07 06:13:00,,0816.4,5.02,0.00,21.5,21.3,00.0,30.7,22.9,09.2,0002.4,0015.79,0009.63,0008.68
2022-01-07 06:14:00,,0816.5,4.99,0.00,21.4,21.0,00.0,30.6,22.8,09.4,0002.2,0015.56,0009.50,0008.59
2022-01-07 06:15:00,,0816.6,5.01,0.00,21.3,20.7,00.0,30.6,22.6,09.6,0002.1,0015.33,0009.33,0008.43
2022-01-07 06:16:00,,0816.3,5.01,0.00,21.3,21.2,00.0,30.6,22.8,09.7,0002.1,0015.20,0009.05,0008.18
2022-01-07 06:17:00,,0816.4,5.00,0.00,21.5,22.2,00.0,30.6,23.2,10.1,0002.2,0014.46,0008.67,0007.81
2022-01-07 06:18:00,,0816.4,4.99,0.00,21.7,23.0,00.0,30.7,23.5,10.1,0002.3,0013.74,0008.36,0007.56
2022-01-07 06:19:00,,0816.3,5.01,0.00,21.8,22.9,00.0,30.7,23.6,10.1,0002.5,0013.61,0008.22,0007.42
2022-01-07 06:20:00,,0816.3,4.99,0.00,21.8,22.5,00.0,30.7,23.5,10.5,0002.7,0013.00,0007.91,0007.20
2022-01-07 06:21:00,,0816.3,5.01,0.00,21.8,22.0,00.0,30.7,23.3,11.0,0002.8,0012.27,0007.58,0006.90
2022-01-07 06:22:00,,0816.4,4.99,0.00,21.7,21.6,00.0,30.7,23.2,11.3,0002.5,0011.91,0007.31,0006.64
2022-01-07 06:23:00,,0816.4,5.00,0.00,21.6,21.4,00.0,30.7,23.1,11.4,0002.3,0011.85,0007.24,0006.58
2022-01-07 06:24:00,,0816.2,5.01,0.00,21.6,21.2,00.0,30.7,23.1,11.4,0002.0,0011.88,0007.27,0006.60
2022-01-07 06:25:00,,0816.2,5.00,0.00,21.6,21.0,00.0,30.7,23.1,11.3,0002.2,0012.12,0007.27,0006.60
2022-01-07 06:26:00,,0816.3,5.01,0.00,21.5,20.9,00.0,30.6,23.0,11.3,0001.8,0012.03,0007.17,0006.53
2022-01-07 06:27:00,,0816.3,4.99,0.00,21.5,20.8,00.0,30.6,23.0,11.3,0001.6,0011.81,0007.08,0006.46
2022-01-07 06:28:00,,0816.3,5.00,0.00,21.6,21.6,00.0,30.7,23.2,11.2,0001.4,0011.69,0007.09,0006.50
2022-01-07 06:29:00,,0816.3,5.00,0.00,21.7,22.5,00.0,30.7,23.5,11.2,0001.2,0011.55,0007.10,0006.52
2022-01-07 06:30:00,,0816.3,4.99,0.00,21.9,22.7,00.0,30.8,23.7,11.3,0000.8,0011.45,0007.04,0006.48
2022-01-07 06:31:00,,0816.2,5.00,0.00,21.9,22.4,00.0,30.8,23.6,11.2,0000.5,0011.57,0007.08,0006.51
2022-01-07 06:32:00,,0816.3,4.99,0.00,21.8,22.0,00.0,30.8,23.5,11.2,0000.6,0011.80,0007.26,0006.67
2022-01-07 06:33:00,,0816.2,4.99,0.00,21.8,21.5,00.0,30.8,23.3,11.2,0000.9,0012.08,0007.49,0006.87
2022-01-07 06:34:00,,0816.1,5.00,0.00,21.7,21.1,00.0,30.8,23.1,11.4,0000.8,0012.09,0007.59,0007.00
2022-01-07 06:35:00,,0816.2,5.01,0.00,21.6,20.9,00.0,30.7,23.0,11.8,0001.1,0012.17,0007.63,0007.05
2022-01-07 06:36:00,,0816.4,5.00,0.00,21.5,20.7,00.0,30.7,22.8,11.8,0001.0,0011.94,0007.63,0007.05
2022-01-07 06:37:00,,0816.3,5.01,0.00,21.4,21.0,00.0,30.7,22.9,11.5,0001.6,0012.02,0007.77,0007.14
2022-01-07 06:38:00,,0816.2,5.00,0.00,21.6,22.0,00.0,30.7,23.2,11.2,0002.1,0012.30,0007.92,0007.26
2022-01-07 06:39:00,,0816.2,5.00,0.00,21.7,22.8,00.0,30.7,23.6,11.0,0002.3,0012.48,0008.06,0007.37
2022-01-07 06:40:00,,0816.1,5.00,0.00,21.8,22.6,00.0,30.8,23.7,10.9,0002.3,0012.45,0008.16,0007.47
2022-01-07 06:41:00,,0815.9,5.00,0.00,21.8,22.2,00.0,30.8,23.6,11.1,0002.4,0012.47,0008.24,0007.56
2022-01-07 06:42:00,,0816.1,5.00,0.00,21.8,21.9,00.0,30.8,23.4,11.2,0002.6,0012.44,0008.29,0007.60
2022-01-07 06:43:00,,0816.1,4.99,0.00,21.7,21.6,00.0,30.8,23.2,11.3,0002.3,0012.49,0008.34,0007.64
2022-01-07 06:44:00,,0816.1,5.01,0.00,21.6,21.3,00.0,30.8,23.1,11.4,0002.1,0012.58,0008.37,0007.66
2022-01-07 06:45:00,,0816.1,5.00,0.00,21.5,21.0,00.0,30.7,22.9,11.5,0002.2,0012.85,0008.44,0007.69
2022-01-07 06:46:00,,0816.1,5.00,0.00,21.4,20.8,00.0,30.7,22.7,11.9,0002.2,0013.13,0008.48,0007.70
2022-01-07 06:47:00,,0816.1,4.99,0.00,21.5,21.3,00.0,30.7,23.0,12.0,0002.2,0013.24,0008.48,0007.71
2022-01-07 06:48:00,,0816.0,5.00,0.00,21.6,22.2,00.0,30.7,23.3,11.6,0002.1,0013.22,0008.46,0007.70
2022-01-07 06:49:00,,0815.9,5.01,0.00,21.8,22.9,00.0,30.8,23.6,11.5,0001.7,0012.99,0008.40,0007.65
2022-01-07 06:50:00,,0816.0,5.00,0.00,21.9,22.9,00.0,30.8,23.8,11.5,0001.8,0012.87,0008.29,0007.57
2022-01-07 06:51:00,,0816.0,5.00,0.00,21.9,22.6,00.0,30.8,23.7,11.5,0002.0,0012.78,0008.19,0007.48
2022-01-07 06:52:00,,0815.9,5.00,0.00,21.9,22.2,00.0,30.8,23.6,11.5,0002.1,0012.69,0008.11,0007.42
2022-01-07 06:53:00,,0815.7,5.02,0.00,21.9,21.9,00.0,30.8,23.4,11.9,0002.1,0012.56,0008.00,0007.32
2022-01-07 06:54:00,,0815.9,4.99,0.00,21.8,21.5,00.0,30.8,23.2,12.4,0002.3,0012.34,0007.80,0007.15
2022-01-07 06:55:00,,0816.0,5.01,0.00,21.7,21.2,00.0,30.8,23.1,12.7,0002.2,0011.99,0007.54,0006.92
2022-01-07 06:56:00,,0815.9,5.00,0.00,21.6,21.0,00.0,30.8,23.1,12.5,0001.9,0011.64,0007.37,0006.77
2022-01-07 06:57:00,,0815.8,5.00,0.00,21.5,20.9,00.0,30.7,22.9,12.9,0001.7,0011.18,0007.18,0006.63
2022-01-07 06:58:00,,0815.8,5.01,0.00,21.5,21.3,00.0,30.8,23.1,13.1,0001.6,0010.90,0007.02,0006.46
2022-01-07 06:59:00,,0815.9,5.01,0.00,21.7,22.2,00.0,30.8,23.4,12.6,0001.7,0010.72,0006.85,0006.31
